#timestamp,LO_Frequency,Hit,StdDev 
1652976015.6,286046993.3,N
1652976035.4,286046998.9,N
1652976055.2,286046997.1,N
1652976075.1,286046995.2,N
1652976076.0,286046995.7,N
1652976095.8,286046997.7,N
1652976115.7,286046995.8,N
1652976135.5,286046998.0,N
1652976155.3,286046997.1,N
1652976175.2,286046996.7,N
1652976195.9,286046996.7,N
1652976215.7,286046993.4,Y
1652976235.6,286046997.0,P
1652976255.4,286047001.0,P
1652976275.3,286047000.0,N
1652976295.1,286047000.9,N
1652976296.0,286047002.8,N
1652976315.8,286046998.7,N
1652976335.7,286046996.5,N
1652976355.5,286046998.2,N
1652976375.3,286046999.1,N
1652976395.2,286046998.8,N
1652976415.0,286047000.7,N
1652976415.9,286047000.0,N
1652976435.8,286047001.0,N
1652976455.6,286047002.8,N
1652976475.4,286047000.8,N
1652976495.3,286046996.8,N
1652976515.1,286046999.0,N
1652976535.8,286046995.0,N
1652976555.7,286046994.4,N
1652976575.5,286046991.7,Y
1652976595.4,286046996.3,P
1652976615.2,286046997.8,N
1652976635.0,286046997.3,N
1652976635.9,286046996.6,Y
1652976655.8,286046998.2,P
1652976675.6,286046998.3,P
1652976695.4,286046998.9,P
1652976715.3,286046997.0,Y
1652976735.1,286046998.7,P
1652976755.9,286047011.9,P
1652976775.7,286046998.8,N
1652976795.5,286047000.3,N
1652976815.4,286046998.1,N
1652976835.2,286046998.1,N
1652976855.0,286046999.2,N
1652976856.0,286046997.0,N
1652976875.8,286046996.9,N
1652976895.6,286046996.9,N
1652976915.5,286046998.8,N
1652976935.3,286046999.3,N
1652976955.1,286047000.7,N
1652976975.9,286047000.9,N
1652976995.7,286047000.3,N
1652977015.6,286047000.3,N
1652977035.4,286047000.3,N
1652977055.2,286047000.7,N
1652977075.1,286047000.5,N
1652977076.0,286047000.8,N
1652977095.8,286046998.9,N
1652977115.6,286046996.5,N
1652977135.5,286046999.0,N
1652977155.3,286046998.6,N
1652977175.1,286046998.4,N
1652977195.9,286046996.5,N
1652977215.7,286046999.5,N
1652977235.6,286046999.0,N
1652977255.4,286046998.2,N
1652977275.2,286046999.3,N
1652977295.1,286046998.4,N
1652977296.0,286046997.1,N
1652977315.8,286046993.4,Y
1652977335.7,286046997.1,P
1652977355.5,286046997.2,P
1652977375.3,286047000.8,N
1652977395.2,286046998.7,N
1652977415.0,286046998.6,N
1652977415.9,286047001.1,N
1652977435.7,286047000.5,N
1652977455.6,286046995.7,N
1652977475.4,286046994.9,N
1652977495.3,286046997.7,N
1652977515.1,286046998.0,N
1652977516.0,286046995.1,N
1652977535.8,286046995.0,N
1652977555.7,286046996.7,N
1652977575.5,286046999.6,N
1652977595.3,286047000.7,N
1652977615.2,286046998.9,N
1652977635.0,286046999.2,N
1652977635.9,286046996.9,N
1652977655.8,286046998.0,N
1652977675.6,286046996.0,N
1652977695.4,286046992.6,Y
1652977715.3,286046996.1,P
1652977735.1,286046994.2,P
1652977755.9,286046995.9,N
1652977775.7,286046993.8,Y
1652977795.5,286047000.4,P
1652977815.4,286047000.5,N
1652977835.2,286047001.2,N
1652977855.0,286047000.0,N
1652977855.9,286047001.1,N
1652977875.8,286046998.3,N
1652977895.6,286046998.9,N
1652977915.5,286046997.6,N
1652977935.3,286046994.9,Y
1652977955.1,286046998.9,P
1652977975.9,286046993.8,P
1652977995.7,286046994.0,N
1652978015.6,286046992.1,Y
1652978035.4,286046993.8,P
1652978055.2,286046997.7,N
1652978075.1,286046999.6,N
1652978076.0,286046999.6,N
1652978095.8,286046999.2,N
1652978115.6,286046995.5,N
1652978135.5,286046996.4,N
1652978155.3,286046995.0,N
1652978175.2,286046996.1,N
1652978195.9,286046996.6,N
1652978215.7,286046995.5,N
1652978235.6,286046996.3,N
1652978255.4,286046994.9,N
1652978275.2,286046996.1,N
1652978295.1,286046996.0,N
1652978296.0,286046995.0,Y
1652978315.8,286046996.5,P
1652978335.7,286046999.5,P
1652978355.5,286047000.8,N
1652978375.3,286046998.1,N
1652978395.2,286046998.6,N
1652978415.0,286047000.8,N
1652978415.9,286046996.5,N
1652978435.7,286046999.4,N
1652978455.6,286046998.4,N
1652978475.4,286047000.6,N
1652978495.3,286047003.6,N
1652978515.1,286047003.9,N
1652978516.0,286047001.8,N
1652978535.8,286047000.3,N
1652978555.7,286047000.3,N
1652978575.5,286047000.5,N
1652978595.3,286047000.7,N
1652978615.2,286047001.3,N
1652978635.0,286047002.3,N
1652978635.9,286047001.8,N
1652978655.8,286047005.5,N
1652978675.6,286047001.3,N
1652978695.4,286047005.8,N
1652978715.3,286047005.1,N
1652978735.1,286047004.8,N
1652978755.8,286047006.5,N
1652978775.7,286047006.1,N
1652978795.5,286047009.2,Y
1652978845.4,286047008.8,E
1652978855.3,286046998.5,N
1652978875.1,286047000.7,P
1652978895.9,286047000.7,N
1652978915.7,286047000.6,N
1652978935.6,286046998.7,N
1652978955.4,286046998.7,N
1652978975.2,286047002.4,N
1652978995.1,286047002.2,N
1652978996.0,286047000.9,N
1652979015.8,286047001.8,N
1652979035.6,286047001.5,N
1652979055.5,286047004.1,Y
1652979075.3,286047005.4,P
1652979095.2,286047002.9,N
1652979115.9,286047002.0,N
1652979135.7,286047000.1,N
1652979155.6,286047000.2,N
1652979175.4,286047000.4,N
1652979195.2,286047002.5,N
1652979215.1,286047002.8,N
1652979216.0,286047000.9,N
1652979235.8,286046998.6,N
1652979255.7,286047002.3,N
1652979275.5,286047001.8,N
1652979295.3,286047003.0,N
1652979315.2,286047005.4,Y
1652979335.0,286047004.1,P
1652979335.9,286047002.3,N
1652979355.8,286047002.6,N
1652979375.6,286047001.4,N
1652979395.4,286047002.7,N
1652979415.3,286047002.0,N
1652979435.1,286047004.4,Y
1652979455.9,286047003.1,P
1652979475.7,286047003.3,P
1652979495.5,286047004.2,P
1652979515.4,286047001.7,N
1652979535.2,286047005.4,Y
1652979555.0,286047003.7,P
1652979556.0,286047003.3,P
1652979575.8,286047006.0,P
1652979595.6,286047005.4,Y
